(256611) = 2007 VZ89

Discovered at Socorro on 2007-11-04 by LINEAR.

Orbit

Orbit type: Main Belt

Note: WebGL enabled browser required.

epoch2023-09-13.0
epoch JD2460200.5
perihelion date2020-06-21.66346
perihelion JD2459022.16346
argument of perihelion (°)184.24800
ascending node (°)169.47286
inclination (°)3.30975
eccentricity0.1285794
perihelion distance (AU)1.9148218
Tisserand w.r.t. Jupiter3.7
ΔV w.r.t. Earth (km/sec)8.6
semimajor axis (AU)2.1973567
mean anomaly (°)356.55157
mean daily motion (°/day)0.30258890
aphelion distance (AU)2.480
period (years)3.26
P-vector [x]0.99397827
P-vector [y]-0.09875752
P-vector [z]-0.04747783
Q-vector [x]0.10906846
Q-vector [y]0.93337964
Q-vector [z]0.34191595
absolute magnitude18.04
phase slope0.15
uncertainty0
referenceMPEC 2023-X152
observations used376
oppositions15
arc length (days)10599
first opposition used1994
last opposition used2023
residual rms (arc-secs)0.72
perturbers coarse indicatorM-v
perturbers precise indicator003Ek
first observation date used1994-11-30.0
last observation date used2023-12-07.0
computer nameMPCLINUX
JD of orbit computation2456494.358568
perihelion JD uncertainty (days)7.1677E-05
argument of perihelion uncertainty (°)9.2070E-05
ascending node uncertainty (°)8.8991E-05
inclination uncertainty (°)5.9564E-06
eccentricity uncertainty 5.5997E-08
perihelion distance uncertainty (AU)1.2667E-07
Minimum Orbit Intersection Distances (in AU)
for orbit epoch: 2460200.5, reference: E2023-XF2
Mercury1.53621
Venus1.18961
Earth0.90888
Mars0.52125
Jupiter2.91863
Saturn6.77351
Uranus15.9692
Neptune27.8319

Observations

382 total observations over interval: 1994 11 30.30652 – 2023 12 07.119548
These data are available for download (format description).

Date (UT) J2000 RA J2000 Dec Magn Location Ref
1994 11 30.30652 03 46 53.88 +13 47 26.4 20.3 V 691 – Steward Observatory, Kitt Peak-Spacewatch MPS 282616
1994 11 30.33026 03 46 52.35 +13 47 21.8   691 – Steward Observatory, Kitt Peak-Spacewatch MPS 282616
1994 11 30.35417 03 46 50.78 +13 47 17.6   691 – Steward Observatory, Kitt Peak-Spacewatch MPS 282616
2000 07 05.29938 20 36 26.46 -13 18 49.1 20.6 V 691 – Steward Observatory, Kitt Peak-Spacewatch MPS 282616
2000 07 05.30495 20 36 26.24 -13 18 49.8 20.8 V 691 – Steward Observatory, Kitt Peak-Spacewatch MPS 282616
2000 07 05.31055 20 36 26.01 -13 18 51.0 21.0 V 691 – Steward Observatory, Kitt Peak-Spacewatch MPS 282616
2006 05 07.30044 14 24 49.39 -09 37 55.5 21.0 V G96 – Mt. Lemmon Survey MPS 254574
2006 05 07.30684 14 24 48.96 -09 37 53.5 20.7 V G96 – Mt. Lemmon Survey MPS 254574
2006 05 07.31328 14 24 48.60 -09 37 51.6 21.0 V G96 – Mt. Lemmon Survey MPS 254574
2006 05 07.31978 14 24 48.16 -09 37 49.1 21.0 V G96 – Mt. Lemmon Survey MPS 254574
2006 05 26.28212 14 08 34.11 -08 10 13.9 21.3 V G96 – Mt. Lemmon Survey MPS 254574
2006 05 26.28663 14 08 33.93 -08 10 12.8 21.2 V G96 – Mt. Lemmon Survey MPS 254574
2006 05 26.29117 14 08 33.75 -08 10 11.8 21.4 V G96 – Mt. Lemmon Survey MPS 254574
2006 05 26.29582 14 08 33.57 -08 10 11.0 21.1 V G96 – Mt. Lemmon Survey MPS 254574
2007 09 14.43202 03 50 55.21 +16 53 29.9 20.9 V G96 – Mt. Lemmon Survey MPS 254574
2007 09 14.43765 03 50 55.50 +16 53 29.7 20.9 V G96 – Mt. Lemmon Survey MPS 254574
2007 09 14.44322 03 50 55.71 +16 53 29.9 20.8 V G96 – Mt. Lemmon Survey MPS 254574
2007 09 14.44880 03 50 56.00 +16 53 29.5 20.9 V G96 – Mt. Lemmon Survey MPS 254574
2007 10 10.43788 03 59 33.46 +16 01 31.3 20.1 V G96 – Mt. Lemmon Survey MPS 254574
2007 10 10.44470 03 59 33.39 +16 01 29.6 20.0 V G96 – Mt. Lemmon Survey MPS 254574
2007 10 10.45145 03 59 33.28 +16 01 28.2 19.9 V G96 – Mt. Lemmon Survey MPS 254574
2007 11 02.25433 03 46 33.49 +14 19 12.0 19.9 V 691 – Steward Observatory, Kitt Peak-Spacewatch MPS 254574
2007 11 02.27209 03 46 32.48 +14 19 06.4 20.1 V 691 – Steward Observatory, Kitt Peak-Spacewatch MPS 254574
2007 11 02.28972 03 46 31.45 +14 19 01.3 19.9 V 691 – Steward Observatory, Kitt Peak-Spacewatch MPS 254574
2007 11 04.31587 03 44 36.86 +14 08 39.2 19.7   704 – Lincoln Laboratory ETS, New Mexico MPS 225258
2007 11 04.32792 03 44 36.13 +14 08 35.8 20.2   704 – Lincoln Laboratory ETS, New Mexico MPS 225258
2007 11 04.33998 03 44 35.41 +14 08 32.7 20.4   704 – Lincoln Laboratory ETS, New Mexico MPS 225258
2007 11 07.31463 03 41 38.84 +13 53 17.4 20.2   704 – Lincoln Laboratory ETS, New Mexico MPS 225258
2007 11 07.32702 03 41 38.05 +13 53 12.1 20.3   704 – Lincoln Laboratory ETS, New Mexico MPS 225258
2007 11 07.33940 03 41 37.23 +13 53 08.1 20.6   704 – Lincoln Laboratory ETS, New Mexico MPS 225258
2007 11 07.35178 03 41 36.44 +13 53 06.4 20.4   704 – Lincoln Laboratory ETS, New Mexico MPS 225258
2007 11 07.36419 03 41 35.65 +13 53 00.0 21.0   704 – Lincoln Laboratory ETS, New Mexico MPS 225258
2007 11 20.16721 03 28 04.04 +12 51 27.4 19.8 V 691 – Steward Observatory, Kitt Peak-Spacewatch MPS 254574
2007 11 20.18482 03 28 02.89 +12 51 22.6 20.0 V 691 – Steward Observatory, Kitt Peak-Spacewatch MPS 254574
2007 11 20.20242 03 28 01.74 +12 51 18.4 19.8 V 691 – Steward Observatory, Kitt Peak-Spacewatch MPS 254574
2009 03 21.34936 12 40 25.46 -02 36 36.8 21.1 V G96 – Mt. Lemmon Survey MPS 281342
2009 03 21.35487 12 40 25.14 -02 36 34.3 21.1 V G96 – Mt. Lemmon Survey MPS 281342
2009 03 21.36039 12 40 24.81 -02 36 32.1 21.1 V G96 – Mt. Lemmon Survey MPS 281342
2009 03 21.36590 12 40 24.49 -02 36 29.6 21.2 V G96 – Mt. Lemmon Survey MPS 281342
2009 03 27.37777 12 34 42.36 -01 50 40.2   291 – LPL/Spacewatch II MPS 281342
2009 03 27.38191 12 34 42.12 -01 50 37.9   291 – LPL/Spacewatch II MPS 281342
2009 03 27.39339 12 34 41.43 -01 50 32.8   291 – LPL/Spacewatch II MPS 281342
2009 03 29.20114 12 32 56.81 -01 36 38.9   691 – Steward Observatory, Kitt Peak-Spacewatch MPS 282616
2009 03 29.21627 12 32 55.91 -01 36 32.1   691 – Steward Observatory, Kitt Peak-Spacewatch MPS 282616
2009 03 29.23139 12 32 55.02 -01 36 25.1   691 – Steward Observatory, Kitt Peak-Spacewatch MPS 282616
2010 09 01.37123 00 02 04.13 +00 15 51.7 19.8   704 – Lincoln Laboratory ETS, New Mexico MPS 346365
2010 09 01.38266 00 02 03.65 +00 15 48.2 19.6   704 – Lincoln Laboratory ETS, New Mexico MPS 346365
2010 09 01.39408 00 02 03.26 +00 15 42.5 20.1   704 – Lincoln Laboratory ETS, New Mexico MPS 346365
2010 09 01.40549 00 02 02.77 +00 15 38.6 19.4   704 – Lincoln Laboratory ETS, New Mexico MPS 346365
2010 09 01.41689 00 02 02.43 +00 15 32.5 19.6   704 – Lincoln Laboratory ETS, New Mexico MPS 346365
2010 09 11.34073 23 55 08.79 -01 00 09.7 19.2 V 703 – Catalina Sky Survey MPS 348055
2010 09 11.34741 23 55 08.50 -01 00 13.4 19.9 V 703 – Catalina Sky Survey MPS 348055
2010 09 11.35413 23 55 08.07 -01 00 16.2 19.5 V 703 – Catalina Sky Survey MPS 348055
2010 09 11.36081 23 55 07.82 -01 00 20.4 19.6 V 703 – Catalina Sky Survey MPS 348055
2010 09 28.382409 23 41 15.745 -03 22 20.92 19.61 r F51 – Pan-STARRS 1, Haleakala MPS 366885
2010 09 28.393481 23 41 15.203 -03 22 26.09 19.76 r F51 – Pan-STARRS 1, Haleakala MPS 366885
2010 10 01.29080 23 39 04.58 -03 44 35.8 19.5   704 – Lincoln Laboratory ETS, New Mexico MPS 349523
2010 10 01.30536 23 39 03.89 -03 44 42.8 19.9   704 – Lincoln Laboratory ETS, New Mexico MPS 349523
2010 10 01.33170 23 39 02.63 -03 44 54.1 20.2   704 – Lincoln Laboratory ETS, New Mexico MPS 349523
2010 10 01.34481 23 39 02.09 -03 44 59.3 19.4   704 – Lincoln Laboratory ETS, New Mexico MPS 349523
2010 10 07.16161 23 35 09.60 -04 25 07.5 19.5   704 – Lincoln Laboratory ETS, New Mexico MPS 349523
2010 10 07.17510 23 35 09.09 -04 25 14.0 19.8   704 – Lincoln Laboratory ETS, New Mexico MPS 349523
2010 10 07.18873 23 35 08.51 -04 25 18.2 20.1   704 – Lincoln Laboratory ETS, New Mexico MPS 349523
2010 10 07.20224 23 35 08.05 -04 25 22.6 19.8   704 – Lincoln Laboratory ETS, New Mexico MPS 349523
2010 10 07.21579 23 35 07.51 -04 25 28.2 20.2   704 – Lincoln Laboratory ETS, New Mexico MPS 349523
2010 10 07.332175 23 35 03.402 -04 26 11.33 20.51 g F51 – Pan-STARRS 1, Haleakala MPS 366885
2010 10 07.343843 23 35 02.963 -04 26 15.76 20.51 g F51 – Pan-STARRS 1, Haleakala MPS 366885
2010 10 09.20147 23 33 59.11 -04 37 36.0 19.8 V G96 – Mt. Lemmon Survey MPS 351349
2010 10 09.20318 23 33 59.04 -04 37 36.5 19.7 V G96 – Mt. Lemmon Survey MPS 351349
2010 10 09.20837 23 33 58.86 -04 37 38.3 19.7 V G96 – Mt. Lemmon Survey MPS 351349
2010 10 09.21007 23 33 58.78 -04 37 38.9 19.6 V G96 – Mt. Lemmon Survey MPS 351349
2010 10 09.21522 23 33 58.60 -04 37 40.8 19.7 V G96 – Mt. Lemmon Survey MPS 351349
2010 10 09.21696 23 33 58.53 -04 37 41.3 19.6 V G96 – Mt. Lemmon Survey MPS 351349
2010 10 09.22213 23 33 58.35 -04 37 43.1 19.7 V G96 – Mt. Lemmon Survey MPS 351349
2012 01 19.48317 11 10 02.31 +03 34 24.5 21.8 V G96 – Mt. Lemmon Survey MPS 408680
2012 01 19.49073 11 10 02.17 +03 34 24.7 21.3 V G96 – Mt. Lemmon Survey MPS 408680
2012 01 19.49829 11 10 02.10 +03 34 26.8 21.7 V G96 – Mt. Lemmon Survey MPS 408680
2012 01 19.50586 11 10 01.92 +03 34 27.0 21.4 V G96 – Mt. Lemmon Survey MPS 408680
2012 02 23.32068 10 46 47.64 +06 33 12.4 21.0 V G96 – Mt. Lemmon Survey MPS 425881
2012 02 23.33048 10 46 47.02 +06 33 16.6 20.9 V G96 – Mt. Lemmon Survey MPS 425881
2012 02 23.34022 10 46 46.41 +06 33 21.0 21.2 V G96 – Mt. Lemmon Survey MPS 425881
2012 03 02.34487 10 38 47.94 +07 32 54.3 20.9 V G96 – Mt. Lemmon Survey MPS 415986
2012 03 02.35018 10 38 47.50 +07 32 56.0 20.1 V G96 – Mt. Lemmon Survey MPS 415986
2012 03 02.35557 10 38 47.25 +07 32 59.1 21.2 V G96 – Mt. Lemmon Survey MPS 415986
2012 03 02.36085 10 38 46.93 +07 33 02.3 21.0 V G96 – Mt. Lemmon Survey MPS 415986
2012 04 20.918726 10 12 20.49 +11 16 07.2 22.8 i Z18 – Gran Telescopio Canarias, Roque de los Muchach MPS 936030
2012 04 20.920393 10 12 20.50 +11 16 07.3 22.4 i Z18 – Gran Telescopio Canarias, Roque de los Muchach MPS 936030
2012 04 20.922060 10 12 20.51 +11 16 07.3 22.6 i Z18 – Gran Telescopio Canarias, Roque de los Muchach MPS 936030
